www.pogodaiklimat.ru

Погода и климат >> Архив погоды >> Россия >> Калмыкия >> Юста


ПОГОДА в Юсте

  • Прогноз погоды в Юсте
  • Монитор погоды в Юсте

АРХИВ ПОГОДЫ в Юсте

Время (UTC), дата Ветер
(напр.,м/с)
 
Видим.   Явления Облачность Т
(С)
Тd
(С)
f
(%)
Тe
(С)
Тes
(С)
Комфортность P
(гПа)
Po
(гПа)
Тmin
(С)
Tmax
(С)
R
(мм)
R24
(мм)
S
(см)
06 15.04 В 5 20 км 9/0
[Ac trans Ci fib]
+16.5 +10.9 69 +16 +18 1014.3 1013.9
09 15.04 В 5 20 км 10/0
[Cs]
+20.0 +10.4 54 +21 +27 комфорт 1014.1 1013.7
12 15.04 В 6
{10}
20 км 10/0
[Cs]
+21.0 +9.4 47 +22 +25 комфорт 1013.9 1013.5
15 15.04 В 3 20 км 8/0
[Ac und Cs]
+18.7 +10.4 58 +19 +20 1013.8 1013.4 +21.4
18 15.04 В 4 10 км 10/0
[Ac As]
+15.6 +10.3 71 +15 +15 1015.1 1014.7
21 15.04 СВ 5 10 км 10/0
[Ac As]
+13.6 +9.6 77 +12 +12 1013.9 1013.5
00 16.04 СВ 5 10 км 5/0
[Ac trans Ci fib]
+11.7 +7.5 75 +9 +9 1013.5 1013.1
03 16.04 СВ 6 20 км 9/0
[Ac und]
+11.0 +7.6 80 +8 +8 1012.9 1012.6 +10.0
06 16.04 В 7-11
{12}
20 км 9/8
[Sc Ac trans]
+15.4 +8.0 61 +14 +14 1012.8 1012.5
09 16.04 В 6-10
{12}
20 км 10/6 600 м
[Sc Ac As]
+18.4 +8.8 54 +18 +19 1012.0 1011.6
12 16.04 СВ 6-11
{12}
20 км 10/8 600 м
[Sc Ac As]
+18.9 +9.1 53 +19 +19 1010.6 1010.2
15 16.04 СВ 4
{11}
20 км в посл. час ливневой дождь 10/8 300 м
[Cb calv Ac cuf]
+15.4 +12.3 82 +14 +14 1010.3 1009.9 +19.3 0.8
18 16.04 СВ 8-11
{12}
10 км {ливн. осадки} 8/0
[Ac cuf Ci sp]
+12.6 +9.1 79 +10 +10 1010.8 1010.4
21 16.04 СВ 8-12
{13}
10 км 10/10 600 м
[Sc]
+11.9 +8.4 79 +9 +9 1010.0 1009.6
00 17.04 СВ 9-14
{14}
4000 м слаб. дождь 10/0 300 м
[As op]
+11.1 +8.6 85 +7 +7 1009.3 1008.9
03 17.04 СВ 12-17
{17}
20 км {дождь} 10/10 300 м
[Frnb]
+9.3 +7.4 88 +4 +4 1009.4 1009.0 +9.3 0.8
06 17.04 СВ 14-20
{21}
4000 м слаб. дождь 10/0 300 м
[As op]
+6.7 +3.6 81 0 0 1011.3 1010.9 +6.7
09 17.04 СВ 14-19
{20}
4000 м слаб. дождь 10/10 300 м
[Frnb Ns]
+6.0 +3.4 83 -1 -1 1012.9 1012.5
12 17.04 СВ 14-20
{20}
10 км слаб. дождь 10/10 300 м
[Frnb Ns]
+6.5 +3.1 79 -0 -0 1014.3 1013.9
15 17.04 СВ 10-15
{20}
20 км в посл. час дождь 10/10 600 м
[Sc]
+6.8 -0.2 61 +1 +1 1015.8 1015.5 +9.3 2
18 17.04 СВ 10-15
{18}
10 км {дождь} 9/0
[Ac trans]
+5.5 -8.5 36 0 0 1017.8 1017.4
21 17.04 СВ 8-14
{15}
10 км 3/0
[Ac trans Ci fib]
+2.7 -8.5 43 -3 -3 1018.4 1018.1
00 18.04 С 6
{14}
10 км 3/0
[Ci fib]
+0.8 -8.1 51 -5 -5 1019.2 1018.8
03 18.04 С 5
{10}
20 км 3/0
[Ci fib]
-0.2 -7.6 57 -6 -5 1021.3 1021.0 -0.8
06 18.04 СВ 8-13
{14}
20 км 3/0
[Ci fib]
+3.7 -10.0 36 -2 -0 1022.4 1022.0
09 18.04 СВ 11-16
{16}
20 км 3/0
[Ci]
+7.2 -14.0 20 +2 +3 1023.0 1022.6
12 18.04 СВ 9-13
{16}
20 км ясно +8.9 -13.5 19 +5 +6 1023.0 1022.6
15 18.04 СВ 7-11
{14}
20 км ясно +8.0 -12.6 22 +5 +5 1023.1 1022.7 +9.1
18 18.04 С 3
{11}
10 км ясно +0.5 -5.7 63 -4 -4 1024.8 1024.4
21 18.04 С 3 10 км ясно -1.4 -5.3 75 -6 -6 1024.9 1024.5
00 19.04 С 3 10 км ясно -2.9 -5.8 80 -8 -8 1024.6 1024.2
03 19.04 СВ 3 20 км 8/0
[Ci]
-1.9 -5.8 75 -7 -6 1025.0 1024.6 -4.1
06 19.04 СВ 5 20 км 8/0
[Ci fib]
+6.7 -8.4 33 +3 +7 1025.8 1025.4
09 19.04 СВ 6-11
{14}
20 км 8/0
[Ci fib]
+9.2 -13.7 18 +6 +11 1025.3 1024.9
12 19.04 СВ 7-10
{11}
20 км 8/0
[Ci fib]
+10.7 -13.0 18 +8 +10 1024.7 1024.3
15 19.04 СВ 4
{10}
20 км 8/0
[Ci fib]
+9.4 -11.0 22 +7 +8 1024.5 1024.2 +10.9
18 19.04 СВ 2 10 км 8/0
[Ci fib]
+1.5 -4.6 64 -1 -1 1025.7 1025.3
21 19.04 СВ 2 10 км 8/0
[Ci fib]
+0.4 -6.0 62 -3 -3 1025.7 1025.3
00 20.04 С 2 10 км 8/0
[Ci fib]
-1.9 -5.6 76 -6 -6 1025.1 1024.7
03 20.04 СВ 2 20 км 8/0
[Ci fib]
-0.7 -4.8 74 -4 -4 1025.2 1024.8 -1.9
06 20.04 СВ 5 20 км 4/0
[Ci fib]
+10.6 -8.6 25 +8 +13 1025.8 1025.4
09 20.04 В 4 20 км ясно +12.4 -10.7 19 +11 +21 опасность
простуды
1025.2 1024.8
12 20.04 В 3 20 км 3/0
[Ci sp]
+13.6 -10.2 18 +13 +20 1024.6 1024.2
15 20.04 СВ 3 20 км 4/0
[Ci sp]
+12.7 -9.1 21 +12 +12 1024.3 1023.9 +13.7
18 20.04 С 2 10 км ясно +3.8 -2.6 63 +1 +1 1025.4 1025.0
21 20.04 В 4 10 км ясно +3.6 -4.8 54 -0 -0 1025.4 1025.1
00 21.04 СВ 2 10 км ясно +0.4 -4.8 68 -3 -3 1024.5 1024.1
03 21.04 С 2 20 км ясно +0.9 -3.8 71 -2 -2 1024.8 1024.4 -0.6
06 21.04 СВ 4 20 км ясно +11.6 -6.7 27 +10 +16 1025.3 1024.9
09 21.04 В 3 20 км 3/0
[Ci sp]
+14.5 -12.1 15 +14 +26 опасность
простуды
1024.8 1024.5
12 21.04 СВ 4 20 км 3/0
[Ci fib]
+15.4 -10.1 16 +15 +20 1024.0 1023.6
15 21.04 В 2 20 км ясно +14.8 -9.3 18 +15 +15 1023.9 1023.5 +16.1
18 21.04 СВ 3 10 км ясно +5.8 -1.9 58 +3 +3 1024.9 1024.5
21 21.04 Ю 2 10 км ясно +6.0 -1.9 57 +4 +4 1025.6 1025.2
00 22.04 СЗ 2 10 км ясно +2.6 -1.8 73 -0 -0 1025.6 1025.2
03 22.04 С 2 20 км ясно +3.6 -1.0 72 +1 +2 1025.5 1025.1 +1.2

 

Местоположение метеостанции Юста (Калмыкия, Россия): широта 47.13 долгота 46.32 высота над уровнем моря 3 м.

В архиве по умолчанию представлена погода в Юсте за последнюю неделю. Архивные данные за месяц целиком и за предыдущие месяцы, начиная с января 2011 года, Вы можете получить, выбрав интересующий диапазон дат из раскрывающегося списка и нажав кнопку "Ввод!".


*Определитесь, кто Вы:
робот инопланетянин человек

Внимание! Время в таблицах - всемирное. Для получения местного времени необходимо прибавить поправку, которая равна 3 ч.

Смотрите также архив погоды в соседних городах и на ближайших метеорологических станциях:

Погода в Харабали (Астраханская область, Россия) (76 км)
Погода в Утте (Калмыкия, Россия) (88 км)
Погода в Черный Яр (Астраханская область, Россия) (106 км)
Погода в Досанге (Астраханская область, Россия) (124 км)
Погода в Верхнем Баскунчаке (Астраханская область, Россия) (125 км)
Погода в Яшкуле (Калмыкия, Россия) (129 км)
Погода в Кетченерах (Калмыкия, Россия) (134 км)
Погода в Малых Дербетах (Калмыкия, Россия) (151 км)
Погода в Астрахани (Астраханская область, Россия) (158 км)
Погода в Лимане (Астраханская область, Россия) (163 км)

Пояснения к столбцам:

Ветер - указаны скорость ветра в м/с - средняя за 10 мин, порывы в срок и между сроками (в фигурных скобках) и направление, откуда дует ветер: С - северный, СВ - северо-восточный, В - восточный, ЮВ - юго-восточный, Ю - южный, ЮЗ - юго-западный, З - западный, СЗ - северо-западный.
Видимость - горизонтальная дальность видимости в метрах или километрах. При видимости от 1 до 10 км при отсутствии осадков обычно наблюдается дымка, при ухудшении видимости до 1 км и менее - туман. В сухую погоду видимость может ухудшаться дымом, пылью или мглою.
Явления - указаны атмосферные явления, наблюдавшиеся в срок или в последний час перед сроком; фигурными скобками обозначены явления, наблюдавшиеся между сроками (за 1-3 часа до срока); квадратными скобками обозначены град или гололедные отложения с указанием их диаметра в мм.
Облачность - указаны через наклонную черту общая и нижняя облачность в баллах и высота нижней границы облаков в метрах; квадратными скобками обозначены формы облаков: Ci - перистые, Cs - перисто-слоистые, Cc - перисто-кучевые, Ac - высококучевые, As - высокослоистые, Sc - слоисто-кучевые, Ns - слоисто-дождевые, Cu - кучевые, Cb - кучево-дождевые. Подробнее классификацию облаков см. в Атласе облаков (PDF).
T - Температура воздуха - температура, измеренная на высоте 2 м над землей.
Td - Температура точки росы - температура, при понижении до которой содержащийся в воздухе водяной пар достигнет насыщения.
f - Относительная влажность воздуха - влажноcть воздуха, измеренная на высоте 2 м над землей.
Te - Эффективная температура - температура, которую ощущает одетый по сезону человек в тени. Характеристика душности погоды. При расчете учитывается влияние влажности воздуха и скорости ветра на теплоощущения человека.
Tes - Эффективная температура на солнце - температура, которую ощущает человек, с поправкой на солнечный нагрев. Характеристика знойности погоды. Зависит от высоты солнца над горизонтом, облачности и скорости ветра. Ночью, в пасмурную погоду, а также при ветре 12 м/с и более поправка равна нулю.
P - Атмосферное давление - приведенное к уровню моря атмосферное давление.
Po - Атмосферное давление - измеренное на уровне метеостанции атмосферное давление.
Tmin - Минимальная температура - минимум температуры воздуха на высоте 2 м над землей.
Tmax - Максимальная температура - максимум температуры воздуха на высоте 2 м над землей.
R - Количество осадков - Количество выпавших осадков за период времени, мм. При наведении курсора мыши на число - период времени, за который выпало указанное количество осадков.
R24 - Количество осадков - Количество выпавших осадков за 24 часа, мм.
S - Снежный покров - Высота снежного покрова, см. При наведении курсора мыши на число - состояние снежного покрова и степень покрытия местности в баллах.